Regional Weather Roundup
Issued by NWS

Home | Current Version | Previous Version | Graphics & Text | Print | Product List | Glossary On
Versions: 1 2 3 4 5 6 7 8 9 10 11 12 13 14 15 16 17 18 19 20 21 22 23 24 25 26 27 28
000
ASUS45 KCYS 210610
RWRWY

WYOMING REGIONAL WEATHER ROUNDUP
NATIONAL WEATHER SERVICE CHEYENNE WY
1200 AM MDT MON APR 21 2014

NOTE:  "FAIR" INDICATES FEW OR NO CLOUDS BELOW 12,000 FEET
WITH NO SIGNIFICANT WEATHER AND/OR OBSTRUCTIONS TO VISIBILITY.

WYZ001-210700-
YELLOWSTONE NATIONAL PARK

CITY           SKY/WX    TMP DP  RH WIND       PRES   REMARKS
LK YELLOWSTONE   N/A     26  21  81 CALM      30.31S
6HR MIN TEMP:  26; 6HR MAX TEMP:  47;

W YELLOWSTONE  NOT AVBL

$$
WYZ002>013-054>058-071-098>099-210700-
NORTHERN WYOMING

CITY           SKY/WX    TMP DP  RH WIND       PRES   REMARKS
JACKSON          N/A     30  28  93 N3        30.26S
CODY           CLEAR     46  18  31 NW8       30.22S
GREYBULL       MOCLDY    59  12  15 VRB7G17   30.14R
6HR MIN TEMP:  57; 6HR MAX TEMP:  68;

WORLAND        MOCLDY    49  19  30 NW7       30.17R
6HR MIN TEMP:  49; 6HR MAX TEMP:  68;

SHERIDAN         N/A     39  30  70 NE7         N/A  WCI  34
6HR MIN TEMP:  42; 6HR MAX TEMP:  62;

BUFFALO        PTCLDY    41  20  43 W10       30.23R
6HR MIN TEMP:  41; 6HR MAX TEMP:  59;

GILLETTE       CLEAR     30  24  78 SW3       30.20R
6HR MIN TEMP:  30; 6HR MAX TEMP:  62;

HULETT         FAIR      45  21  39 E3        30.20
NEWCASTLE      FAIR      50  18  27 N8        30.16

$$
WYZ014>020-022>026-101>103-210700-
CENTRAL WYOMING

CITY           SKY/WX    TMP DP  RH WIND       PRES   REMARKS
BIG PINEY      CLEAR     30  17  58 NW7       30.27S WCI  23
6HR MIN TEMP:  29; 6HR MAX TEMP:  59;

PINEDALE       CLEAR     30  23  74 NW3       30.28R
DUBOIS         FAIR      34  21  60 NW9       30.25S WCI  26
LANDER         CLEAR     47  23  38 W7        30.21R
6HR MIN TEMP:  47; 6HR MAX TEMP:  69;

RIVERTON       PTCLDY    48  30  49 E8        30.22R
6HR MIN TEMP:  48; 6HR MAX TEMP:  69;

CASPER         CLEAR     41  31  67 E3        30.22R
6HR MIN TEMP:  37; 6HR MAX TEMP:  65;

DOUGLAS        CLEAR     49  27  42 N10       30.21R
6HR MIN TEMP:  47; 6HR MAX TEMP:  66;


$$
WYZ021-027>030-104>119-210700-
SOUTHERN WYOMING

CITY           SKY/WX    TMP DP  RH WIND       PRES   REMARKS
EVANSTON       CLEAR     46  16  30 CALM      30.28S
6HR MIN TEMP:  45; 6HR MAX TEMP:  58;

KEMMERER       PTCLDY    36  18  48 CALM      30.28S
FORT BRIDGER   FAIR      41  16  36 W7        30.30S
ROCK SPRINGS   PTCLDY    47   6  18 NW6       30.24R
6HR MIN TEMP:  46; 6HR MAX TEMP:  64;

DIXON          MOCLDY    38  33  81 E3        30.27R
RAWLINS        CLEAR     45  26  47 N10       30.21R
6HR MIN TEMP:  44; 6HR MAX TEMP:  64;

SARATOGA       FAIR      41  32  70 SE7       30.24R
LARAMIE        PTCLDY    38  30  73 SE7       30.22S WCI  33
6HR MIN TEMP:  38; 6HR MAX TEMP:  59;

CHEYENNE       CLEAR     49  31  49 N15       30.20R
6HR MIN TEMP:  49; 6HR MAX TEMP:  67;

TORRINGTON     MOCLDY    50  31  48 NW8       30.16R
6HR MIN TEMP:  48; 6HR MAX TEMP:  73;

PINE BLUFFS    FAIR      48  34  57 N14       30.17R

$$



USA.gov is the U.S. government's official web portal to all federal, state and local government web resources and services.